Temperature
13 13 13 13 13 13 14 14 14 14 14 14 14 14 14 14 14 14 14 14 14 14 15 15 15 15 15 15 15 15 15 15 15 15 15 15 15 15 15 15 15 15 15
13 13 13 13 13 13 13 13 13 14 14 14 14 14 14 14 14 14 14 14 14 14 14 14 14 14 14 14 15 15 15 15 15 14 14 14 15 15 15 15 15 15 15
13 13 13 13 13 13 13 13 13 13 13 13 13 13 13 13 14 13 14 14 14 14 14 14 14 14 14 14 14 14 14 14 14 14 14 14 14 14 14 14 14 15 14
13 13 13 13 13 13 13 13 13 13 13 13 13 13 13 13 13 13 13 13 13 14 14 14 14 14 14 14 14 14 14 14 14 14 14 14 14 14 14 14 14 14 14
12 12 12 12 13 13 13 13 13 13 13 13 13 13 13 13 13 13 13 13 13 13 13 13 13 13 13 14 14 14 14 14 14 14 14 14 14 14 14 14 14 14 14
12 12 12 12 12 12 12 12 13 13 13 13 13 13 13 13 13 13 13 13 13 13 13 13 13 13 13 13 14 14 14 14 13 13 13 13 13 14 14 13 13 13 14
11 11 12 12 12 12 12 12 12 12 12 12 12 12 12 12 12 12 12 13 13 13 13 13 13 13 13 13 13 13 13 13 13 13 13 13 13 13 13 13 13 13 13
11 11 11 11 11 12 12 12 12 12 12 12 12 12 12 12 12 12 12 12 13 13 13 13 13 13 13 13 13 13 13 13 13 13 13 13 13 13 13 13 13 13 13
11 11 11 11 11 11 12 12 12 12 12 12 12 12 12 12 12 12 12 12 12 12 12 12 12 12 12 12 13 13 13 13 12 12 12 12 12 12 13 13 13 13 13
10 10 11 11 11 11 11 11 11 12 12 12 12 12 12 12 12 12 12 12 12 12 12 12 12 12 12 12 12 12 12 12 12 12 12 12 12 12 12 12 12 12 12
10 10 10 10 10 11 11 11 11 11 11 12 11 11 11 11 11 11 11 11 12 12 12 12 12 12 12 12 12 12 12 12 11 11 12 11 11 11 11 11 11 11 11
10 10 10 10 10 10 10 11 11 11 11 11 11 11 11 11 11 11 11 11 11 11 11 12 12 12 12 12 11 11 11 11 11 11 11 11 11 11 11 11 11 11 11
9 9 9 9 10 10 10 10 10 11 11 11 11 11 11 11 11 11 11 11 11 11 11 11 11 11 11 11 11 11 11 11 11 11 11 11 10 10 10 10 10 10 10
8 9 9 9 9 9 10 10 10 10 10 10 10 10 10 10 10 10 10 10 10 10 11 11 11 11 11 11 11 11 10 10 10 10 10 10 10 10 10 10 10 10 10
8 8 9 9 9 9 9 9 9 10 10 10 10 10 10 10 10 10 10 10 10 10 10 10 10 10 10 10 10 10 10 10 10 10 10 10 10 10 10 9 9 9 10
8 8 8 8 8 8 9 9 9 9 9 9 9 9 10 10 10 10 10 10 10 10 10 10 10 10 10 10 10 10 10 10 10 9 9 9 9 9 9 9 9 9 9
7 7 7 7 8 8 8 8 8 9 9 9 9 9 9 9 9 9 9 9 9 9 9 9 9 9 9 9 9 9 9 9 9 9 9 9 9 9 9 9 9 9 9
7 7 7 7 7 7 7 8 8 8 8 8 8 8 8 8 9 9 9 9 9 9 9 9 9 8 8 8 8 8 8 8 8 8 8 8 8 8 8 8 8 8 8
6 6 7 7 7 7 7 7 7 7 7 8 8 8 8 8 8 8 8 8 8 8 8 8 8 8 8 8 8 8 8 8 8 8 8 8 8 8 8 8 8 8 8
6 6 6 6 6 6 6 7 7 6 7 7 7 7 7 7 8 8 8 7 8 8 8 8 8 8 7 7 7 7 7 7 7 7 7 7 7 7 7 7 7 7 8
5 5 6 6 6 6 6 6 6 6 6 6 7 7 7 7 7 7 7 7 7 7 7 7 7 7 7 7 7 6 6 6 6 7 7 7 7 7 7 7 7 7 7
5 5 5 5 5 5 6 6 6 6 6 6 6 6 6 6 6 7 7 7 7 7 7 7 7 7 7 6 6 6 5 6 6 6 6 6 6 6 6 7 7 6 6
5 5 5 5 5 5 5 5 5 5 5 5 5 6 6 6 6 6 6 6 6 6 6 7 6 6 6 6 6 6 5 5 5 6 6 6 6 6 6 6 6 6 6
4 4 4 4 4 4 4 5 5 5 5 5 5 5 5 5 5 5 5 6 6 6 6 6 6 6 6 6 6 6 6 6 5 5 5 5 5 5 5 5 5 6 5
3 4 4 3 4 4 4 4 4 4 4 4 4 5 5 5 5 5 5 5 5 5 5 5 5 5 5 5 5 5 5 5 5 5 4 4 5 5 5 5 5 5 5
3 3 3 3 3 3 3 3 4 4 4 4 4 4 4 4 4 4 4 4 5 5 5 5 5 5 5 5 5 5 5 5 5 5 4 4 4 4 5 5 4 4 4
Wind_Speed
4 4 3 4 6 7 8 8 8 9 8 9 9 9 9 9 9 10 10 11 11 12 12 13 12 13 14 14 15 15 16 16 16 17 17 17 17 17 16 15 15 17 19
5 6 5 5 7 8 8 8 9 9 9 8 9 9 9 9 9 10 10 11 11 11 12 13 13 14 14 15 16 15 15 16 16 15 16 17 17 16 16 16 16 16 18
5 6 7 6 7 8 9 9 9 8 9 8 8 8 8 8 9 9 10 10 11 11 12 13 13 14 15 15 16 16 15 15 14 13 13 14 15 16 16 16 17 18 18
5 6 6 7 7 9 9 9 9 8 8 8 8 8 8 8 9 9 9 9 10 11 12 13 13 14 14 15 15 15 14 14 12 10 11 12 13 15 16 16 16 17 17
5 6 7 7 7 8 9 9 9 8 8 8 8 8 8 8 8 8 9 9 10 11 12 13 13 13 14 14 14 14 13 12 11 11 12 12 13 14 15 15 16 16 16
5 5 7 7 8 8 9 9 9 8 8 8 8 8 8 8 9 9 9 10 10 10 11 12 13 13 13 13 13 13 12 11 10 11 11 12 12 14 15 15 16 16 16
4 4 6 7 7 8 8 8 9 8 8 8 8 8 8 9 9 9 9 10 9 10 11 12 12 13 13 13 12 12 11 10 10 11 11 12 13 15 15 15 15 16 16
4 4 5 6 7 7 8 8 8 8 8 8 8 8 8 9 9 9 10 10 10 11 11 12 12 13 12 12 12 12 11 9 10 10 11 12 14 15 15 15 16 16 16
5 5 5 4 5 7 7 8 8 9 9 9 9 9 9 9 9 10 10 10 10 11 11 12 12 12 11 12 12 11 11 9 10 9 10 11 13 15 15 16 16 16 16
4 4 4 4 4 5 6 7 8 9 9 9 9 9 9 9 9 10 9 10 11 11 11 12 12 12 12 12 11 10 9 8 9 9 9 11 13 14 14 15 16 16 16
3 3 3 4 4 4 4 6 7 7 8 8 8 8 8 7 8 8 9 11 11 11 11 11 12 12 11 11 10 9 7 7 8 8 9 11 12 13 13 14 16 16 16
3 2 2 2 3 3 3 4 4 5 6 6 6 6 6 6 6 7 10 11 11 11 11 11 11 10 8 8 8 6 6 7 7 8 9 11 12 12 13 13 15 16 16
4 3 2 2 3 3 2 2 3 4 4 5 5 5 5 6 5 6 6 7 8 8 8 8 8 7 6 6 5 5 6 6 6 7 9 10 11 11 12 12 14 14 14
4 3 2 2 2 2 3 2 3 3 3 3 4 5 5 4 4 4 4 5 5 4 5 5 5 7 7 7 7 6 6 6 6 6 8 10 10 10 11 11 12 13 13
4 3 2 2 1 2 2 2 2 3 3 3 4 4 5 4 4 4 4 4 4 4 5 5 6 7 6 6 7 7 7 7 6 6 7 10 9 10 11 11 12 12 12
4 4 3 2 2 2 2 2 2 3 3 4 3 4 5 4 4 4 4 3 4 5 5 6 6 6 6 6 7 7 7 7 7 6 6 7 9 9 10 10 10 11 11
5 4 4 3 2 3 3 2 2 3 4 4 3 4 4 5 5 4 4 4 4 5 6 6 7 6 6 6 6 6 6 6 6 6 6 5 7 8 9 9 9 9 10
5 4 4 2 3 2 2 2 2 3 4 4 4 4 4 5 5 4 4 4 4 5 5 5 5 5 5 4 4 4 5 5 6 6 5 5 5 5 7 9 8 8 8
4 4 4 3 3 3 2 2 2 2 3 3 4 4 3 4 4 4 3 3 4 4 4 5 5 5 5 5 4 4 4 4 4 5 5 5 5 5 5 7 8 7 7
3 3 3 3 2 2 2 2 2 1 2 2 3 4 4 3 4 4 3 4 4 4 4 4 5 5 5 5 4 4 3 3 3 3 3 3 4 4 5 5 5 6 6
3 3 3 3 2 2 2 3 2 2 2 2 2 4 4 4 4 3 3 4 4 4 5 6 5 6 5 5 4 3 2 2 2 2 2 2 3 3 4 4 4 3 4
3 3 4 4 4 4 3 3 2 2 2 1 2 3 4 4 4 3 3 3 4 4 5 6 6 4 3 4 3 4 2 1 1 1 1 1 1 2 2 3 3 3 3
3 4 4 4 4 4 3 2 2 1 1 2 2 2 3 4 4 3 4 4 4 4 5 6 6 6 5 4 3 3 3 3 2 1 1 1 1 1 2 2 2 2 2
3 3 4 4 4 4 4 4 5 4 4 4 3 3 3 4 4 3 4 4 4 4 5 6 6 5 7 6 3 2 1 2 2 2 2 1 1 1 2 2 2 2 2
3 3 3 4 4 4 4 5 5 5 3 3 3 4 4 3 4 4 4 4 4 4 5 6 6 6 5 6 5 3 2 2 3 3 3 2 2 2 2 3 3 3 3
2 2 2 3 3 4 4 5 6 6 5 4 4 4 4 3 3 4 4 4 4 3 4 6 6 7 6 6 5 5 4 4 4 4 4 4 3 2 2 3 3 3 3
Wind_Direction
161 159 164 151 135 129 124 121 119 120 119 116 112 109 104 98 94 92 91 89 90 89 86 87 86 86 88 87 87 85 85 85 85 84 83 84 84 84 82 80 84 82 81
152 156 154 140 136 134 129 124 118 121 119 116 112 110 106 102 98 94 92 90 89 90 88 88 88 88 88 87 85 84 84 85 85 85 88 87 84 84 82 76 76 83 81
142 150 150 136 131 133 129 125 120 118 118 116 114 113 109 103 100 98 95 92 90 91 91 90 88 89 88 87 86 84 83 85 86 88 91 90 86 84 85 83 82 85 84
138 143 146 132 125 129 127 124 122 119 118 116 115 113 111 106 103 100 95 93 93 94 94 92 88 88 87 87 87 86 84 83 84 92 89 88 88 86 85 86 86 86 85
132 138 133 127 124 123 125 124 121 121 118 117 116 113 110 108 106 103 97 96 96 96 97 95 92 90 90 90 89 87 85 83 80 86 87 88 89 89 87 86 86 87 86
124 130 131 126 125 119 120 122 121 121 119 118 119 116 113 109 105 104 100 98 98 98 100 100 97 94 93 91 89 86 84 82 87 86 87 87 88 89 90 88 87 87 86
106 118 132 125 125 123 121 125 122 118 115 114 117 118 116 112 108 106 103 100 98 101 102 105 104 100 96 94 91 87 81 76 83 85 85 86 87 90 90 90 89 88 87
104 93 119 126 125 123 123 121 123 119 114 109 108 113 113 112 110 107 107 102 99 102 105 108 106 104 101 98 94 88 82 81 84 85 85 87 89 91 91 90 90 89 87
93 89 87 106 132 124 122 119 120 118 112 104 99 101 102 107 109 107 105 103 100 101 106 109 106 104 102 101 97 91 84 77 86 83 86 88 91 91 91 90 90 89 87
89 83 80 83 103 131 131 118 115 117 110 105 99 97 98 100 104 104 104 104 101 101 105 107 106 103 100 97 96 93 90 92 88 83 85 90 91 91 91 91 91 90 89
95 86 83 83 88 95 123 119 114 114 111 111 105 99 104 108 108 108 100 102 101 101 101 105 105 103 100 96 93 94 96 93 91 85 85 90 93 93 91 91 91 90 89
150 128 97 91 92 96 94 123 127 124 122 121 121 119 116 110 104 104 99 96 98 100 101 100 100 102 104 107 100 102 99 97 92 87 86 90 93 95 94 92 91 90 89
177 167 153 117 108 105 99 105 117 126 126 126 125 121 119 112 107 110 112 107 104 104 104 105 104 102 98 105 109 103 100 97 92 90 85 87 95 98 97 95 94 92 90
184 185 181 139 117 115 122 121 125 124 126 126 132 133 130 118 111 112 117 118 117 114 110 108 104 100 96 101 108 104 99 94 94 92 81 80 91 103 103 100 98 96 94
192 190 189 171 134 113 118 131 131 138 136 131 134 140 137 128 125 119 112 117 119 116 119 114 109 104 99 97 99 102 101 97 93 94 89 79 84 99 107 105 100 98 97
204 200 193 190 170 143 125 140 143 139 134 131 127 139 140 136 133 127 120 116 120 120 122 121 117 111 104 98 94 94 96 96 92 90 95 87 79 87 99 101 101 100 99
207 203 199 193 180 169 153 146 137 136 140 135 126 139 142 138 140 134 134 126 120 126 125 121 117 114 105 98 91 85 85 88 94 91 89 91 90 81 86 93 97 99 99
204 201 197 188 183 177 154 148 134 137 137 137 130 132 142 142 140 137 137 136 132 139 137 128 130 124 116 109 101 87 82 81 84 86 87 87 91 91 86 85 88 92 97
198 197 192 189 184 178 156 145 135 138 138 134 130 128 132 143 142 136 137 139 141 144 143 138 137 137 129 119 107 91 81 78 79 85 86 81 83 88 94 95 91 86 92
190 187 184 185 183 171 150 137 136 134 142 133 139 134 135 136 138 128 138 146 142 145 149 145 143 134 132 124 106 87 73 70 74 82 90 91 88 92 95 96 100 92 89
184 188 189 185 184 171 166 167 179 195 185 161 156 147 144 144 143 136 134 153 148 154 158 152 142 140 139 138 126 107 75 62 68 73 86 98 92 94 100 97 96 101 102
195 196 200 200 190 188 184 181 191 193 210 186 170 163 159 157 153 152 152 157 157 155 160 160 155 154 155 172 166 155 161 171 126 54 75 103 122 120 114 115 109 102 106
215 213 211 210 201 195 181 152 152 165 176 186 201 188 184 174 165 171 164 157 168 169 173 172 172 173 172 186 200 192 181 193 167 185 201 209 211 187 162 142 147 146 148
235 229 223 217 207 193 179 169 172 198 210 212 207 207 193 182 180 188 173 172 172 178 180 180 180 182 179 183 191 222 235 159 181 183 194 203 221 233 223 200 196 187 188
233 227 222 217 208 195 185 179 185 208 222 220 197 202 192 191 194 191 184 183 181 184 188 185 184 188 193 194 191 183 181 180 197 206 212 205 214 231 240 230 221 214 210
232 222 220 217 213 203 197 192 192 204 209 209 200 207 203 195 195 196 195 198 195 192 197 192 191 193 196 197 198 195 192 193 190 199 210 210 223 223 236 237 232 222 215
Height
1528 1529 1530 1532 1533 1534 1535 1536 1537 1538 1539 1539 1540 1540 1541 1541 1542 1542 1543 1543 1543 1543 1544 1544 1544 1545 1545 1545 1545 1545 1545 1545 1545 1546 1546 1546 1546 1546 1546 1546 1546 1546 1546
1527 1529 1530 1532 1533 1534 1535 1536 1537 1538 1539 1539 1540 1541 1541 1542 1542 1543 1543 1544 1544 1544 1545 1545 1545 1546 1546 1546 1546 1547 1547 1547 1547 1548 1548 1548 1548 1548 1548 1548 1548 1548 1549
1526 1528 1530 1531 1533 1534 1535 1536 1537 1538 1539 1540 1540 1541 1541 1542 1543 1543 1544 1544 1545 1545 1545 1546 1546 1546 1547 1547 1547 1548 1548 1549 1549 1549 1550 1550 1550 1550 1550 1550 1551 1551 1551
1526 1528 1530 1531 1533 1534 1535 1536 1537 1538 1539 1540 1541 1542 1542 1543 1543 1544 1544 1545 1545 1546 1546 1546 1546 1547 1547 1548 1548 1549 1550 1550 1551 1551 1552 1552 1552 1552 1552 1552 1552 1553 1553
1526 1528 1529 1531 1533 1534 1535 1536 1537 1538 1539 1540 1541 1542 1542 1543 1544 1544 1545 1545 1546 1546 1547 1547 1547 1547 1548 1549 1549 1550 1551 1552 1552 1553 1553 1553 1554 1554 1554 1554 1554 1554 1555
1526 1527 1529 1531 1532 1534 1535 1536 1537 1538 1539 1540 1541 1542 1542 1543 1544 1545 1545 1546 1546 1547 1547 1547 1547 1548 1548 1549 1550 1551 1552 1553 1554 1554 1555 1555 1555 1555 1555 1556 1556 1556 1556
1526 1527 1529 1531 1532 1533 1535 1536 1537 1538 1539 1540 1541 1542 1543 1543 1544 1544 1545 1546 1547 1547 1547 1548 1548 1549 1549 1550 1551 1552 1553 1554 1555 1556 1556 1556 1557 1557 1557 1557 1557 1558 1558
1525 1527 1529 1530 1532 1533 1534 1535 1537 1538 1539 1540 1540 1541 1542 1543 1544 1545 1545 1546 1547 1547 1548 1548 1549 1549 1550 1551 1552 1553 1554 1555 1556 1557 1557 1558 1558 1558 1559 1559 1559 1559 1559
1525 1527 1528 1529 1531 1532 1533 1535 1536 1537 1538 1539 1540 1541 1542 1543 1544 1545 1545 1546 1547 1548 1548 1549 1549 1550 1551 1551 1552 1553 1554 1556 1557 1558 1559 1559 1560 1560 1560 1560 1560 1561 1561
1525 1526 1527 1528 1530 1531 1532 1533 1535 1536 1537 1538 1539 1541 1542 1542 1543 1544 1545 1546 1547 1548 1548 1549 1549 1550 1551 1552 1553 1554 1555 1556 1558 1558 1559 1560 1561 1561 1562 1562 1562 1562 1562
1523 1524 1526 1527 1528 1530 1531 1532 1533 1535 1536 1537 1538 1540 1541 1542 1543 1544 1545 1546 1547 1547 1548 1549 1549 1550 1551 1552 1553 1555 1556 1557 1558 1559 1560 1561 1562 1562 1563 1563 1563 1563 1563
1521 1522 1524 1526 1527 1528 1529 1531 1532 1533 1535 1536 1537 1539 1540 1541 1542 1544 1544 1545 1546 1547 1547 1548 1549 1551 1552 1552 1553 1555 1556 1557 1558 1559 1560 1561 1562 1563 1563 1564 1563 1564 1564
1519 1521 1522 1523 1525 1526 1527 1529 1530 1532 1533 1534 1536 1537 1538 1540 1541 1543 1544 1545 1545 1546 1547 1548 1549 1550 1551 1552 1553 1554 1555 1557 1558 1559 1560 1562 1563 1563 1564 1565 1564 1564 1565
1517 1518 1520 1521 1523 1524 1525 1527 1528 1530 1531 1533 1534 1536 1537 1538 1540 1541 1543 1544 1545 1546 1547 1548 1549 1549 1550 1551 1552 1553 1555 1556 1557 1559 1560 1561 1563 1564 1564 1565 1564 1564 1565
1515 1516 1518 1519 1521 1522 1523 1525 1526 1528 1530 1531 1532 1534 1535 1537 1538 1540 1542 1543 1544 1545 1546 1547 1548 1549 1550 1551 1552 1553 1554 1555 1557 1558 1560 1561 1563 1564 1564 1565 1564 1565 1565
1513 1514 1516 1517 1519 1520 1521 1523 1524 1526 1527 1529 1530 1532 1534 1535 1537 1538 1540 1541 1542 1544 1545 1546 1547 1548 1549 1550 1551 1552 1553 1555 1556 1558 1559 1561 1562 1563 1564 1564 1564 1565 1565
1511 1512 1513 1515 1516 1518 1519 1521 1522 1524 1525 1527 1528 1530 1532 1533 1535 1537 1538 1540 1541 1542 1544 1545 1546 1547 1548 1550 1551 1552 1553 1554 1555 1557 1558 1560 1561 1562 1563 1564 1564 1564 1565
1508 1509 1511 1512 1514 1515 1517 1518 1520 1521 1523 1525 1526 1528 1530 1531 1533 1535 1536 1538 1539 1541 1542 1543 1545 1546 1547 1549 1550 1551 1552 1553 1555 1556 1558 1559 1560 1561 1562 1562 1563 1564 1564
1506 1507 1508 1509 1511 1513 1514 1516 1517 1519 1520 1522 1524 1525 1527 1529 1531 1532 1534 1536 1537 1539 1540 1542 1543 1545 1546 1547 1549 1550 1551 1552 1554 1555 1556 1557 1559 1560 1560 1561 1562 1563 1563
1503 1504 1505 1507 1508 1510 1511 1513 1515 1516 1518 1519 1521 1523 1524 1526 1528 1530 1531 1533 1534 1536 1538 1539 1541 1543 1545 1546 1547 1548 1550 1551 1553 1554 1555 1556 1557 1558 1559 1560 1560 1561 1562
1500 1501 1502 1504 1505 1507 1508 1509 1512 1513 1515 1516 1518 1520 1522 1523 1525 1527 1529 1530 1532 1534 1535 1537 1539 1540 1543 1544 1546 1547 1549 1550 1551 1552 1553 1554 1555 1556 1557 1558 1559 1560 1560
1496 1497 1499 1500 1502 1503 1505 1506 1508 1510 1511 1513 1515 1517 1519 1521 1522 1524 1526 1527 1529 1531 1532 1534 1536 1538 1539 1542 1544 1545 1547 1550 1549 1550 1551 1552 1553 1554 1555 1556 1557 1558 1558
1492 1493 1495 1496 1498 1500 1502 1503 1506 1508 1508 1510 1511 1513 1516 1518 1520 1521 1523 1525 1526 1528 1529 1531 1533 1535 1537 1539 1541 1543 1545 1546 1547 1548 1548 1550 1551 1552 1552 1553 1554 1555 1556
1489 1490 1492 1493 1494 1496 1498 1499 1501 1502 1503 1505 1507 1510 1512 1514 1516 1518 1520 1521 1523 1524 1526 1528 1530 1532 1534 1536 1538 1539 1541 1541 1543 1544 1546 1547 1548 1549 1550 1551 1551 1552 1553
1486 1487 1488 1490 1491 1492 1494 1496 1498 1500 1501 1502 1504 1506 1508 1511 1513 1514 1516 1518 1520 1522 1523 1525 1527 1529 1531 1533 1534 1535 1537 1538 1539 1541 1542 1543 1545 1546 1547 1547 1548 1548 1549
1484 1484 1485 1486 1487 1489 1490 1492 1494 1496 1497 1499 1500 1502 1504 1506 1508 1510 1512 1514 1516 1518 1520 1521 1524 1525 1527 1529 1531 1532 1533 1535 1535 1537 1538 1539 1540 1542 1543 1544 1544 1545 1545